Change the Weather History Date:

Sunday, August 4, 2013

  Actual Average Record
Temperature  
Mean Temperature 79 °F -  
Max Temperature 88 °F 90 °F 105 °F (1947)
Min Temperature 70 °F 69 °F 59 °F (1974)
Cooling Degree Days 14    
Growing Degree Days 29 (Base 50)    
Moisture  
Dew Point 70 °F    
Average Humidity 78    
Maximum Humidity 97    
Minimum Humidity 57    
Precipitation  
Precipitation 0.06 in - - ()
Sea Level Pressure  
Sea Level Pressure 30.08 in    
Wind  
Wind Speed 4 mph (NNE)    
Max Wind Speed 9 mph    
Max Gust Speed -    
Visibility 10 miles    
Events Rain    
Averages and records for this station are not official NWS values.
T = Trace of Precipitation, MM = Missing Value Source: NWS Daily Summary

Daily Weather History Graph

Daily Weather History Graph

Search for Another Location

Airport or City:

Trip Planner

Search our weather history database for the weather conditions in past years. The results will help you decide how hot, cold, wet, or windy it might be!

Date:

Astronomy

Aug. 04, 2013 Rise Set
Actual Time 6:09 AM CDT 8:00 PM CDT
Civil Twilight 5:41 AM CDT 8:28 PM CDT
Nautical Twilight 5:07 AM CDT 9:02 PM CDT
Astronomical Twilight 4:31 AM CDT 9:38 PM CDT
Moon 4:10 AM CDT (8/4) 6:24 PM CDT (8/4)
Length of Visible Light 14h 47m
Length of Day
13h 51m
Waning Crescent, 4% of the Moon is Illuminated
Aug 4
Waning Crescent
Aug 6
New
Aug 14
First Quarter
Aug 20
Full
Aug 28
Last Quarter

Hourly Weather History & Observations

Time (CDT) Temp. Heat Index Dew Point Humidity Pressure Visibility Wind Dir Wind Speed Gust Speed Precip Events Conditions
12:53 AM 73.0 °F - 71.1 °F 93% 30.08 in 10.0 mi NNW 3.5 mph - N/A   Clear
1:53 AM 72.0 °F - 71.1 °F 97% 30.07 in 10.0 mi NNW 3.5 mph - N/A   Clear
2:53 AM 72.0 °F - 70.0 °F 93% 30.06 in 10.0 mi NNW 3.5 mph - 0.01 in   Clear
3:53 AM 72.0 °F - 70.0 °F 93% 30.05 in 10.0 mi Calm Calm - N/A   Clear
4:53 AM 71.1 °F - 70.0 °F 96% 30.07 in 5.0 mi Calm Calm - N/A   Clear
5:53 AM 70.0 °F - 69.1 °F 97% 30.09 in 9.0 mi North 4.6 mph - N/A   Partly Cloudy
6:53 AM 72.0 °F - 70.0 °F 93% 30.09 in 10.0 mi NNE 3.5 mph - N/A   Clear
7:53 AM 75.9 °F - 72.0 °F 87% 30.11 in 10.0 mi Calm Calm - N/A   Clear
8:53 AM 78.1 °F - 70.0 °F 76% 30.12 in 10.0 mi NE 9.2 mph - 0.01 in   Clear
9:53 AM 81.0 °F 84.4 °F 70.0 °F 69% 30.13 in 10.0 mi NE 6.9 mph - N/A   Clear
10:53 AM 82.0 °F 85.9 °F 70.0 °F 67% 30.12 in 10.0 mi NE 5.8 mph - 0.01 in   Unknown
11:53 AM 84.9 °F 88.8 °F 69.1 °F 59% 30.12 in 10.0 mi NNE 6.9 mph - N/A   Clear
12:53 PM 84.9 °F 89.4 °F 70.0 °F 61% 30.10 in 10.0 mi NE 5.8 mph - N/A   Clear
1:53 PM 88.0 °F 93.8 °F 71.1 °F 57% 30.09 in 10.0 mi NNE 5.8 mph - 0.01 in   Clear
2:53 PM 84.9 °F 90.1 °F 71.1 °F 63% 30.08 in 10.0 mi ENE 6.9 mph - N/A   Scattered Clouds
3:53 PM 84.0 °F 88.4 °F 70.0 °F 63% 30.07 in 10.0 mi NNE 9.2 mph - 0.01 in   Scattered Clouds
4:53 PM 84.0 °F 88.4 °F 70.0 °F 63% 30.06 in 10.0 mi NNE 6.9 mph - N/A   Clear
5:53 PM 81.0 °F 84.4 °F 70.0 °F 69% 30.06 in 10.0 mi NE 4.6 mph - N/A   Overcast
6:53 PM 79.0 °F - 69.1 °F 72% 30.06 in 10.0 mi NNE 6.9 mph - 0.01 in   Overcast
7:53 PM 78.1 °F - 66.9 °F 68% 30.07 in 10.0 mi NNE 3.5 mph - N/A   Mostly Cloudy
8:53 PM 75.0 °F - 70.0 °F 84% 30.07 in 10.0 mi North 4.6 mph - 0.00 in Rain Light Rain
9:53 PM 75.0 °F - 69.1 °F 82% 30.07 in 10.0 mi NE 4.6 mph - 0.00 in   Clear
10:53 PM 75.0 °F - 69.1 °F 82% 30.08 in 10.0 mi Calm Calm - N/A   Partly Cloudy
11:53 PM 73.9 °F - 66.9 °F 79% 30.05 in 10.0 mi East 6.9 mph - N/A   Overcast